Location: downtown San Diego
(32.7310°N, 117.1990°W)
Time: 21:35:52
(UTC-07:00)

SL-8 Rocket - Pass Details

Date: 12 July 2018
Orbit: 956 x 992 km, 82.9° (Epoch: 24 September)

Event Time Altitude Azimuth Distance (km) Brightness Sun altitude
Rises 23:23:16 0° 347° (NNW) 3,710 8.1 -31.2°
Reaches altitude 10° 23:25:51 10° 343° (NNW) 2,758 7.2 -31.5°
Maximum altitude 23:31:57 52° 269° (W) 1,215 4.5 -32.0°
Enters shadow 23:32:01 52° 267° (W) 1,215 4.5 -32.0°
